AAL2682 KSAN-KMIA

Flight info

Callsign AAL2682
Flight time 4h 30m
Altitude 35000
Route ZZOOO4 GBN ONM GAINS CRIED LEV Q102 BLVNS Y290 DOWRY FROGZ5
Aircraft B738/M-SDE2E3FGHIRWXY/LB1

Departure

Time 2026-04-22 10:22
Airport San Diego International Airport (KSAN)

Arrival

Time 2026-04-22 14:53
Airport Miami International Airport (KMIA)
Time Latitude Longitude Altitude Speed Heading
2026-04-22 10:04 32.73380 -117.20218 23 ft 0 kts 154°
2026-04-22 10:13 32.73381 -117.20218 23 ft 2 kts 154°
2026-04-22 10:13 32.73404 -117.20232 23 ft 4 kts 150°
2026-04-22 10:13 32.73425 -117.20250 23 ft 4 kts 122°
2026-04-22 10:13 32.73432 -117.20261 23 ft 4 kts 27°
2026-04-22 10:14 32.73430 -117.20263 23 ft 0 kts 13°
2026-04-22 10:16 32.73434 -117.20261 23 ft 3 kts 13°
2026-04-22 10:16 32.73492 -117.20245 23 ft 12 kts 14°
2026-04-22 10:16 32.73547 -117.20188 23 ft 11 kts 89°
2026-04-22 10:17 32.73522 -117.20078 23 ft 18 kts 105°
2026-04-22 10:17 32.73488 -117.19940 23 ft 17 kts 107°
2026-04-22 10:17 32.73451 -117.19789 23 ft 20 kts 106°
2026-04-22 10:17 32.73414 -117.19629 23 ft 20 kts 105°
2026-04-22 10:18 32.73376 -117.19472 23 ft 19 kts 106°
2026-04-22 10:18 32.73340 -117.19325 23 ft 18 kts 106°
2026-04-22 10:18 32.73303 -117.19168 23 ft 20 kts 106°
2026-04-22 10:18 32.73265 -117.19014 23 ft 19 kts 107°
2026-04-22 10:19 32.73228 -117.18867 23 ft 18 kts 106°
2026-04-22 10:19 32.73195 -117.18727 23 ft 17 kts 105°
2026-04-22 10:19 32.73163 -117.18588 23 ft 18 kts 106°
2026-04-22 10:19 32.73121 -117.18425 23 ft 22 kts 107°
2026-04-22 10:20 32.73079 -117.18259 23 ft 21 kts 105°
2026-04-22 10:20 32.73042 -117.18098 23 ft 20 kts 106°
2026-04-22 10:20 32.73004 -117.17947 23 ft 19 kts 106°
2026-04-22 10:20 32.72969 -117.17802 23 ft 18 kts 107°
2026-04-22 10:21 32.72949 -117.17711 23 ft 17 kts 95°
2026-04-22 10:21 32.72985 -117.17588 23 ft 14 kts 49°
2026-04-22 10:21 32.73020 -117.17588 23 ft 2 kts 292°
2026-04-22 10:21 32.73032 -117.17633 23 ft 15 kts 287°
2026-04-22 10:22 32.73126 -117.18016 23 ft 84 kts 286°
2026-04-22 10:22 32.73349 -117.18939 23 ft 147 kts 286°
2026-04-22 10:22 32.73557 -117.19805 69 ft 178 kts 286°
2026-04-22 10:22 32.73913 -117.21272 723 ft 188 kts 286°
2026-04-22 10:23 32.74278 -117.22770 1627 ft 186 kts 286°
2026-04-22 10:23 32.74644 -117.24271 2264 ft 197 kts 287°
2026-04-22 10:23 32.75045 -117.25929 2567 ft 220 kts 287°
2026-04-22 10:23 32.75491 -117.27776 2870 ft 243 kts 287°
2026-04-22 10:24 32.75960 -117.29726 3583 ft 247 kts 287°
2026-04-22 10:24 32.76432 -117.31699 4398 ft 249 kts 286°
2026-04-22 10:24 32.76597 -117.33759 5123 ft 255 kts 264°
2026-04-22 10:24 32.75996 -117.35741 5838 ft 260 kts 238°
2026-04-22 10:25 32.74704 -117.37264 6537 ft 265 kts 212°
2026-04-22 10:25 32.72937 -117.37838 7233 ft 267 kts 178°
2026-04-22 10:25 32.71179 -117.37205 7895 ft 268 kts 146°
2026-04-22 10:25 32.69921 -117.35599 8590 ft 267 kts 122°
2026-04-22 10:26 32.68850 -117.33779 9262 ft 270 kts 126°
2026-04-22 10:26 32.67735 -117.32012 9949 ft 271 kts 126°
2026-04-22 10:26 32.66615 -117.30211 10681 ft 271 kts 126°
2026-04-22 10:26 32.65507 -117.28417 11419 ft 270 kts 126°
2026-04-22 10:27 32.64403 -117.26627 12162 ft 268 kts 126°
2026-04-22 10:27 32.63474 -117.24702 12810 ft 271 kts 112°
2026-04-22 10:27 32.62951 -117.22539 13420 ft 275 kts 102°
2026-04-22 10:27 32.62683 -117.20249 13876 ft 286 kts 97°
2026-04-22 10:28 32.62507 -117.17832 14136 ft 302 kts 96°
2026-04-22 10:28 32.62296 -117.15284 14392 ft 318 kts 97°
2026-04-22 10:28 32.62089 -117.12609 14605 ft 334 kts 93°
2026-04-22 10:28 32.62247 -117.09789 14803 ft 351 kts 82°
2026-04-22 10:29 32.62857 -117.06921 15014 ft 367 kts 73°
2026-04-22 10:29 32.63849 -117.04093 15425 ft 374 kts 68°
2026-04-22 10:29 32.64876 -117.01250 15973 ft 375 kts 70°
2026-04-22 10:29 32.65783 -116.98352 16535 ft 376 kts 75°
2026-04-22 10:30 32.66400 -116.95337 17059 ft 377 kts 82°
2026-04-22 10:30 32.66721 -116.92248 17587 ft 378 kts 86°
2026-04-22 10:30 32.66854 -116.89130 18115 ft 379 kts 90°
2026-04-22 10:30 32.66893 -116.85984 18572 ft 382 kts 90°
2026-04-22 10:31 32.66950 -116.82812 19008 ft 386 kts 90°
2026-04-22 10:31 32.67019 -116.79608 19434 ft 390 kts 90°
2026-04-22 10:31 32.67091 -116.76378 19853 ft 394 kts 90°
2026-04-22 10:31 32.67144 -116.73155 20279 ft 396 kts 91°
2026-04-22 10:32 32.67109 -116.69872 20676 ft 400 kts 92°
2026-04-22 10:32 32.67029 -116.66562 21093 ft 402 kts 93°
2026-04-22 10:32 32.66958 -116.63221 21478 ft 406 kts 92°
2026-04-22 10:32 32.66892 -116.59849 21856 ft 409 kts 92°
2026-04-22 10:33 32.66830 -116.56501 22224 ft 412 kts 92°
2026-04-22 10:33 32.66769 -116.53089 22597 ft 415 kts 93°
2026-04-22 10:33 32.66707 -116.49653 22957 ft 418 kts 92°
2026-04-22 10:33 32.66645 -116.46191 23279 ft 421 kts 93°
2026-04-22 10:34 32.66611 -116.42699 23629 ft 424 kts 90°
2026-04-22 10:34 32.66784 -116.39193 23956 ft 428 kts 86°
2026-04-22 10:34 32.67116 -116.35669 24287 ft 431 kts 84°
2026-04-22 10:34 32.67502 -116.32131 24622 ft 433 kts 85°
2026-04-22 10:35 32.67856 -116.28570 24964 ft 435 kts 85°
2026-04-22 10:35 32.68187 -116.24996 25299 ft 437 kts 86°
2026-04-22 10:35 32.68511 -116.21400 25616 ft 439 kts 86°
2026-04-22 10:35 32.68832 -116.17791 25924 ft 441 kts 86°
2026-04-22 10:36 32.69153 -116.14156 26236 ft 443 kts 86°
2026-04-22 10:36 32.69474 -116.10508 26545 ft 445 kts 86°
2026-04-22 10:36 32.69793 -116.06896 26846 ft 447 kts 86°
2026-04-22 10:36 32.70117 -116.03219 27133 ft 449 kts 86°
2026-04-22 10:37 32.70454 -115.99526 27404 ft 451 kts 86°
2026-04-22 10:37 32.71138 -115.92102 27973 ft 454 kts 85°
2026-04-22 10:37 32.71483 -115.88360 28240 ft 456 kts 85°
2026-04-22 10:38 32.71854 -115.84614 28494 ft 458 kts 85°
2026-04-22 10:38 32.72208 -115.80845 28765 ft 459 kts 86°
2026-04-22 10:38 32.72553 -115.77068 28999 ft 461 kts 86°
2026-04-22 10:38 32.72895 -115.73278 29246 ft 463 kts 86°
2026-04-22 10:39 32.73235 -115.69465 29539 ft 463 kts 86°
2026-04-22 10:39 32.73573 -115.65670 29892 ft 462 kts 86°
2026-04-22 10:39 32.73910 -115.61876 30235 ft 461 kts 86°
2026-04-22 10:39 32.74245 -115.58097 30582 ft 460 kts 86°
2026-04-22 10:40 32.74576 -115.54366 30893 ft 460 kts 86°
2026-04-22 10:40 32.74904 -115.50591 31222 ft 459 kts 86°
2026-04-22 10:40 32.75100 -115.46815 31547 ft 457 kts 90°
2026-04-22 10:40 32.75177 -115.43036 31883 ft 456 kts 91°
2026-04-22 10:41 32.75219 -115.39271 32187 ft 456 kts 90°
2026-04-22 10:41 32.75276 -115.35507 32452 ft 456 kts 90°
2026-04-22 10:41 32.75344 -115.31745 32794 ft 454 kts 90°
2026-04-22 10:41 32.75417 -115.27995 33108 ft 453 kts 90°
2026-04-22 10:42 32.75493 -115.24245 33394 ft 453 kts 90°
2026-04-22 10:42 32.75569 -115.20546 33683 ft 452 kts 90°
2026-04-22 10:42 32.75646 -115.16808 33957 ft 452 kts 90°
2026-04-22 10:42 32.75723 -115.13069 34259 ft 451 kts 90°
2026-04-22 10:43 32.75803 -115.09343 34543 ft 450 kts 89°
2026-04-22 10:43 32.75904 -115.05634 34795 ft 450 kts 90°
2026-04-22 10:43 32.75994 -115.01917 35035 ft 450 kts 90°
2026-04-22 10:44 32.76179 -114.94509 35059 ft 451 kts 90°
2026-04-22 10:44 32.76337 -114.87073 35059 ft 448 kts 90°
2026-04-22 10:45 32.76472 -114.79741 35061 ft 448 kts 90°
2026-04-22 10:45 32.76602 -114.72334 35061 ft 448 kts 90°
2026-04-22 10:46 32.76730 -114.64946 35063 ft 447 kts 90°
2026-04-22 10:46 32.76851 -114.57595 35063 ft 447 kts 90°
2026-04-22 10:47 32.76948 -114.50201 35066 ft 447 kts 90°
2026-04-22 10:47 32.77063 -114.42809 35068 ft 446 kts 90°
2026-04-22 10:48 32.77179 -114.35485 35069 ft 446 kts 90°
2026-04-22 10:48 32.77266 -114.28108 35069 ft 447 kts 90°
2026-04-22 10:49 32.77344 -114.20727 35069 ft 446 kts 90°
2026-04-22 10:49 32.77420 -114.13347 35069 ft 446 kts 90°
2026-04-22 10:50 32.77496 -114.05963 35070 ft 446 kts 90°
2026-04-22 10:50 32.77601 -113.98589 35070 ft 446 kts 87°
2026-04-22 10:51 32.78416 -113.91318 35073 ft 446 kts 80°
2026-04-22 10:51 32.79489 -113.84041 35074 ft 446 kts 81°
2026-04-22 10:52 32.80526 -113.76766 35076 ft 446 kts 81°
2026-04-22 10:52 32.81561 -113.69473 35079 ft 447 kts 81°
2026-04-22 10:53 32.82584 -113.62213 35081 ft 447 kts 81°
2026-04-22 10:53 32.83601 -113.54921 35084 ft 447 kts 81°
2026-04-22 10:54 32.84609 -113.47659 35087 ft 447 kts 81°
2026-04-22 10:54 32.85619 -113.40353 35090 ft 448 kts 81°
2026-04-22 10:55 32.86626 -113.33032 35092 ft 447 kts 81°
2026-04-22 10:55 32.87651 -113.25715 35097 ft 447 kts 81°
2026-04-22 10:56 32.88677 -113.18444 35100 ft 447 kts 81°
2026-04-22 10:56 32.89688 -113.11134 35101 ft 448 kts 81°
2026-04-22 10:57 32.90701 -113.03813 35101 ft 448 kts 81°
2026-04-22 10:57 32.91709 -112.96546 35101 ft 448 kts 81°
2026-04-22 10:58 32.92695 -112.89227 35101 ft 448 kts 81°
2026-04-22 10:58 32.93672 -112.81898 35101 ft 448 kts 81°
2026-04-22 10:59 32.94646 -112.74579 35100 ft 448 kts 81°
2026-04-22 10:59 32.95714 -112.67282 35101 ft 448 kts 76°
2026-04-22 11:00 32.97468 -112.60161 35103 ft 448 kts 72°
2026-04-22 11:00 32.99338 -112.53072 35107 ft 449 kts 72°
2026-04-22 11:01 33.01183 -112.46008 35113 ft 448 kts 73°
2026-04-22 11:01 33.03027 -112.38910 35121 ft 448 kts 73°
2026-04-22 11:02 33.04869 -112.31784 35125 ft 448 kts 73°
2026-04-22 11:02 33.06728 -112.24691 35129 ft 448 kts 72°
2026-04-22 11:03 33.08598 -112.17594 35132 ft 448 kts 72°
2026-04-22 11:03 33.10450 -112.10485 35136 ft 449 kts 72°
2026-04-22 11:04 33.12294 -112.03361 35146 ft 450 kts 72°
2026-04-22 11:04 33.14120 -111.96276 35147 ft 448 kts 72°
2026-04-22 11:05 33.15943 -111.89178 35149 ft 447 kts 72°
2026-04-22 11:05 33.17763 -111.82070 35150 ft 448 kts 72°
2026-04-22 11:06 33.19580 -111.74957 35154 ft 448 kts 72°
2026-04-22 11:06 33.21391 -111.67845 35157 ft 448 kts 72°
2026-04-22 11:07 33.23200 -111.60723 35161 ft 448 kts 72°
2026-04-22 11:07 33.25003 -111.53606 35162 ft 447 kts 72°
2026-04-22 11:08 33.26790 -111.46534 35163 ft 447 kts 72°
2026-04-22 11:08 33.28585 -111.39409 35161 ft 447 kts 72°
2026-04-22 11:09 33.30374 -111.32293 35163 ft 447 kts 72°
2026-04-22 11:09 33.32158 -111.25175 35161 ft 447 kts 72°
2026-04-22 11:10 33.33937 -111.18056 35164 ft 446 kts 72°
2026-04-22 11:10 33.35412 -111.12141 35168 ft 446 kts 72°
2026-04-22 11:11 33.37470 -111.03867 35173 ft 446 kts 72°
2026-04-22 11:11 33.38948 -110.97907 35177 ft 446 kts 72°
2026-04-22 11:12 33.40706 -110.90801 35182 ft 446 kts 72°
2026-04-22 11:12 33.42460 -110.83693 35189 ft 445 kts 72°
2026-04-22 11:13 33.44196 -110.76636 35199 ft 445 kts 72°
2026-04-22 11:13 33.45944 -110.69514 35209 ft 445 kts 72°
2026-04-22 11:14 33.47684 -110.62404 35220 ft 445 kts 72°
2026-04-22 11:14 33.49700 -110.54140 35237 ft 445 kts 72°
2026-04-22 11:15 33.51150 -110.48180 35248 ft 444 kts 71°
2026-04-22 11:15 33.52877 -110.41065 35258 ft 445 kts 71°
2026-04-22 11:16 33.54591 -110.33983 35282 ft 444 kts 71°
2026-04-22 11:16 33.56311 -110.26858 35314 ft 445 kts 71°
2026-04-22 11:17 33.58025 -110.19739 35332 ft 444 kts 71°
2026-04-22 11:17 33.59737 -110.12605 35343 ft 445 kts 71°
2026-04-22 11:18 33.61432 -110.05527 35351 ft 444 kts 71°
2026-04-22 11:18 33.63133 -109.98400 35357 ft 444 kts 71°
2026-04-22 11:19 33.64831 -109.91268 35366 ft 444 kts 71°
2026-04-22 11:19 33.66529 -109.84115 35378 ft 444 kts 71°
2026-04-22 11:20 33.68218 -109.76980 35386 ft 444 kts 71°
2026-04-22 11:20 33.69903 -109.69839 35391 ft 444 kts 71°
2026-04-22 11:21 33.71580 -109.62713 35396 ft 444 kts 71°
2026-04-22 11:21 33.73244 -109.55623 35409 ft 444 kts 71°
2026-04-22 11:22 33.74916 -109.48482 35418 ft 444 kts 71°
2026-04-22 11:22 33.76582 -109.41342 35424 ft 444 kts 71°
2026-04-22 11:23 33.78243 -109.34206 35431 ft 443 kts 71°
2026-04-22 11:23 33.79899 -109.27065 35438 ft 443 kts 71°
2026-04-22 11:24 33.81551 -109.19925 35442 ft 443 kts 71°
2026-04-22 11:24 33.83198 -109.12786 35446 ft 443 kts 71°
2026-04-22 11:25 33.84842 -109.05643 35448 ft 443 kts 71°
2026-04-22 11:25 33.86485 -108.98480 35450 ft 443 kts 71°
2026-04-22 11:26 33.88109 -108.91378 35452 ft 443 kts 71°
2026-04-22 11:26 33.89740 -108.84226 35454 ft 443 kts 71°
2026-04-22 11:27 33.91368 -108.77067 35451 ft 444 kts 71°
2026-04-22 11:27 33.92993 -108.69898 35443 ft 444 kts 71°
2026-04-22 11:28 33.94617 -108.62717 35443 ft 444 kts 71°
2026-04-22 11:28 33.96237 -108.55528 35443 ft 444 kts 71°
2026-04-22 11:29 33.97851 -108.48344 35442 ft 444 kts 71°
2026-04-22 11:29 33.99462 -108.41154 35442 ft 445 kts 71°
2026-04-22 11:30 34.01063 -108.33990 35442 ft 446 kts 70°
2026-04-22 11:30 34.02673 -108.26761 35441 ft 446 kts 70°
2026-04-22 11:31 34.04278 -108.19534 35441 ft 445 kts 70°
2026-04-22 11:31 34.05874 -108.12324 35441 ft 445 kts 70°
2026-04-22 11:32 34.07467 -108.05107 35441 ft 445 kts 70°
2026-04-22 11:32 34.09056 -107.97883 35441 ft 445 kts 70°
2026-04-22 11:33 34.10643 -107.90650 35441 ft 445 kts 71°
2026-04-22 11:33 34.12223 -107.83428 35441 ft 445 kts 71°
2026-04-22 11:34 34.13790 -107.76239 35442 ft 446 kts 71°
2026-04-22 11:34 34.15366 -107.68991 35445 ft 446 kts 71°
2026-04-22 11:35 34.16935 -107.61751 35451 ft 446 kts 71°
2026-04-22 11:35 34.18503 -107.54493 35458 ft 446 kts 71°
2026-04-22 11:36 34.20070 -107.47220 35460 ft 447 kts 70°
2026-04-22 11:36 34.21636 -107.39926 35461 ft 447 kts 71°
2026-04-22 11:37 34.23186 -107.32683 35462 ft 448 kts 70°
2026-04-22 11:37 34.24742 -107.25390 35462 ft 448 kts 70°
2026-04-22 11:38 34.26308 -107.18089 35462 ft 448 kts 70°
2026-04-22 11:38 34.28647 -107.07131 35463 ft 449 kts 70°
2026-04-22 11:39 34.30180 -106.99817 35456 ft 449 kts 70°
2026-04-22 11:39 34.31698 -106.92552 35456 ft 449 kts 70°
2026-04-22 11:40 34.33074 -106.85166 35454 ft 454 kts 78°
2026-04-22 11:40 34.32837 -106.77454 35460 ft 466 kts 95°
2026-04-22 11:41 34.31322 -106.69781 35461 ft 471 kts 100°
2026-04-22 11:41 34.29592 -106.62136 35460 ft 470 kts 100°
2026-04-22 11:42 34.27888 -106.54513 35466 ft 470 kts 99°
2026-04-22 11:42 34.26199 -106.46929 35467 ft 469 kts 99°
2026-04-22 11:43 34.24528 -106.39342 35468 ft 469 kts 99°
2026-04-22 11:43 34.22892 -106.31766 35468 ft 469 kts 99°
2026-04-22 11:44 34.21224 -106.24149 35469 ft 468 kts 99°
2026-04-22 11:44 34.19541 -106.16536 35470 ft 469 kts 99°
2026-04-22 11:45 34.17850 -106.08922 35471 ft 468 kts 99°
2026-04-22 11:45 34.16156 -106.01327 35461 ft 468 kts 99°
2026-04-22 11:46 34.14457 -105.93737 35456 ft 468 kts 99°
2026-04-22 11:46 34.12762 -105.86188 35453 ft 468 kts 99°
2026-04-22 11:47 34.11052 -105.78600 35449 ft 468 kts 99°
2026-04-22 11:47 34.09336 -105.71007 35446 ft 469 kts 99°
2026-04-22 11:48 34.07613 -105.63409 35443 ft 470 kts 99°
2026-04-22 11:48 34.05885 -105.55812 35438 ft 470 kts 99°
2026-04-22 11:49 34.04150 -105.48206 35433 ft 470 kts 99°
2026-04-22 11:49 34.02408 -105.40596 35426 ft 471 kts 99°
2026-04-22 11:50 34.00657 -105.32972 35401 ft 472 kts 99°
2026-04-22 11:50 33.98902 -105.25351 35386 ft 470 kts 99°
2026-04-22 11:51 33.97166 -105.17835 35374 ft 468 kts 99°
2026-04-22 11:51 33.95411 -105.10262 35365 ft 469 kts 99°
2026-04-22 11:52 33.93653 -105.02695 35357 ft 469 kts 99°
2026-04-22 11:52 33.91889 -104.95128 35350 ft 469 kts 99°
2026-04-22 11:53 33.90128 -104.87598 35343 ft 470 kts 99°
2026-04-22 11:53 33.88349 -104.80015 35336 ft 470 kts 99°
2026-04-22 11:54 33.86565 -104.72430 35331 ft 471 kts 99°
2026-04-22 11:54 33.84777 -104.64854 35327 ft 471 kts 99°
2026-04-22 11:55 33.82985 -104.57280 35322 ft 471 kts 99°
2026-04-22 11:55 33.81183 -104.49690 35319 ft 472 kts 99°
2026-04-22 11:56 33.79373 -104.42089 35312 ft 472 kts 99°
2026-04-22 11:56 33.77570 -104.34536 35310 ft 472 kts 99°
2026-04-22 11:57 33.75749 -104.26936 35309 ft 473 kts 99°
2026-04-22 11:57 33.73925 -104.19343 35307 ft 473 kts 99°
2026-04-22 11:58 33.72094 -104.11741 35307 ft 474 kts 99°
2026-04-22 11:58 33.70267 -104.04181 35306 ft 474 kts 99°
2026-04-22 11:59 33.68424 -103.96578 35306 ft 474 kts 99°
2026-04-22 11:59 33.66889 -103.90261 35306 ft 474 kts 99°
2026-04-22 12:00 33.65038 -103.82665 35306 ft 474 kts 99°
2026-04-22 12:00 33.63181 -103.75069 35300 ft 474 kts 100°
2026-04-22 12:01 33.61319 -103.67471 35295 ft 474 kts 100°
2026-04-22 12:01 33.59453 -103.59883 35294 ft 474 kts 100°
2026-04-22 12:02 33.57586 -103.52309 35294 ft 473 kts 100°
2026-04-22 12:02 33.55727 -103.44792 35294 ft 473 kts 100°
2026-04-22 12:03 33.53850 -103.37220 35294 ft 473 kts 100°
2026-04-22 12:03 33.51968 -103.29654 35296 ft 473 kts 100°
2026-04-22 12:04 33.50082 -103.22094 35300 ft 473 kts 100°
2026-04-22 12:04 33.48203 -103.14580 35299 ft 473 kts 100°
2026-04-22 12:05 33.46308 -103.07025 35299 ft 473 kts 100°
2026-04-22 12:05 33.44409 -102.99477 35290 ft 474 kts 100°
2026-04-22 12:06 33.42504 -102.91926 35291 ft 474 kts 100°
2026-04-22 12:06 33.40603 -102.84411 35290 ft 474 kts 100°
2026-04-22 12:07 33.38688 -102.76865 35288 ft 474 kts 100°
2026-04-22 12:07 33.36766 -102.69309 35287 ft 475 kts 100°
2026-04-22 12:08 33.34836 -102.61745 35284 ft 475 kts 100°
2026-04-22 12:08 33.32903 -102.54190 35283 ft 475 kts 100°
2026-04-22 12:09 33.30964 -102.46634 35280 ft 475 kts 100°
2026-04-22 12:09 33.29020 -102.39078 35278 ft 475 kts 100°
2026-04-22 12:10 33.27085 -102.31577 35290 ft 476 kts 100°
2026-04-22 12:10 33.26102 -102.27777 35411 ft 479 kts 100°
2026-04-22 12:10 33.25117 -102.23972 35675 ft 479 kts 101°
2026-04-22 12:11 33.24133 -102.20176 35942 ft 478 kts 101°
2026-04-22 12:11 33.23272 -102.16860 36187 ft 478 kts 101°
2026-04-22 12:11 33.22288 -102.13076 36466 ft 477 kts 101°
2026-04-22 12:11 33.21304 -102.09296 36731 ft 476 kts 101°
2026-04-22 12:12 33.20323 -102.05531 36996 ft 475 kts 101°
2026-04-22 12:12 33.19341 -102.01770 37236 ft 475 kts 101°
2026-04-22 12:12 33.17365 -101.94215 37264 ft 476 kts 101°
2026-04-22 12:13 33.15404 -101.86742 37263 ft 473 kts 101°
2026-04-22 12:13 33.13434 -101.79249 37261 ft 473 kts 102°
2026-04-22 12:14 33.11457 -101.71753 37254 ft 474 kts 102°
2026-04-22 12:14 33.09474 -101.64255 37252 ft 474 kts 102°
2026-04-22 12:15 33.07486 -101.56758 37251 ft 474 kts 102°
2026-04-22 12:15 33.05497 -101.49276 37250 ft 473 kts 102°
2026-04-22 12:16 33.03503 -101.41797 37248 ft 473 kts 102°
2026-04-22 12:16 33.01517 -101.34368 37246 ft 473 kts 102°
2026-04-22 12:17 32.99514 -101.26896 37244 ft 473 kts 102°
2026-04-22 12:17 32.97506 -101.19423 37242 ft 473 kts 102°
2026-04-22 12:18 32.95497 -101.11969 37240 ft 473 kts 102°
2026-04-22 12:18 32.93481 -101.04508 37238 ft 473 kts 102°
2026-04-22 12:19 32.91460 -100.97046 37236 ft 473 kts 102°
2026-04-22 12:19 32.89449 -100.89645 37233 ft 473 kts 102°
2026-04-22 12:20 32.87408 -100.82147 37231 ft 473 kts 102°
2026-04-22 12:20 32.85387 -100.74748 37228 ft 473 kts 102°
2026-04-22 12:21 32.83351 -100.67309 37226 ft 473 kts 102°
2026-04-22 12:21 32.81308 -100.59867 37224 ft 473 kts 102°
2026-04-22 12:22 32.79263 -100.52437 37222 ft 473 kts 102°
2026-04-22 12:22 32.77211 -100.44999 37220 ft 473 kts 102°
2026-04-22 12:23 32.75156 -100.37570 37219 ft 473 kts 102°
2026-04-22 12:23 32.73094 -100.30135 37218 ft 473 kts 103°
2026-04-22 12:24 32.71028 -100.22706 37211 ft 473 kts 103°
2026-04-22 12:24 32.68959 -100.15286 37209 ft 473 kts 103°
2026-04-22 12:25 32.66900 -100.07919 37209 ft 474 kts 103°
2026-04-22 12:25 32.64817 -100.00486 37211 ft 474 kts 103°
2026-04-22 12:26 32.62736 -99.93080 37211 ft 473 kts 103°
2026-04-22 12:26 32.60653 -99.85682 37211 ft 473 kts 103°
2026-04-22 12:27 32.58572 -99.78316 37217 ft 473 kts 103°
2026-04-22 12:27 32.56476 -99.70910 37225 ft 474 kts 103°
2026-04-22 12:28 32.54374 -99.63503 37234 ft 474 kts 103°
2026-04-22 12:28 32.52268 -99.56103 37239 ft 474 kts 103°
2026-04-22 12:29 32.50170 -99.48748 37239 ft 474 kts 103°
2026-04-22 12:29 32.48053 -99.41345 37239 ft 474 kts 103°
2026-04-22 12:30 32.44877 -99.30273 37237 ft 473 kts 103°
2026-04-22 12:31 32.42750 -99.22882 37235 ft 474 kts 103°
2026-04-22 12:31 32.40622 -99.15505 37236 ft 474 kts 103°
2026-04-22 12:32 32.38487 -99.08120 37237 ft 473 kts 103°
2026-04-22 12:32 32.35280 -98.97066 37235 ft 474 kts 103°
2026-04-22 12:33 32.33134 -98.89693 37234 ft 474 kts 103°
2026-04-22 12:33 32.30984 -98.82322 37232 ft 474 kts 103°
2026-04-22 12:34 32.28842 -98.74996 37231 ft 474 kts 103°
2026-04-22 12:34 32.26682 -98.67630 37229 ft 475 kts 104°
2026-04-22 12:35 32.24516 -98.60256 37228 ft 475 kts 104°
2026-04-22 12:35 32.22345 -98.52888 37229 ft 475 kts 104°
2026-04-22 12:36 32.20180 -98.45555 37228 ft 475 kts 104°
2026-04-22 12:36 32.18001 -98.38195 37228 ft 475 kts 104°
2026-04-22 12:37 32.15818 -98.30838 37227 ft 475 kts 104°
2026-04-22 12:37 32.13628 -98.23476 37228 ft 475 kts 104°
2026-04-22 12:38 32.11430 -98.16103 37234 ft 478 kts 104°
2026-04-22 12:38 32.09215 -98.08692 37237 ft 486 kts 104°
2026-04-22 12:39 32.05831 -97.97391 37240 ft 486 kts 104°
2026-04-22 12:40 32.03613 -97.89931 37243 ft 486 kts 104°
2026-04-22 12:40 32.01338 -97.82405 37245 ft 487 kts 104°
2026-04-22 12:41 31.99061 -97.74903 37246 ft 487 kts 104°
2026-04-22 12:41 31.96776 -97.67387 37249 ft 486 kts 104°
2026-04-22 12:42 31.94522 -97.59938 37252 ft 486 kts 104°
2026-04-22 12:42 31.92291 -97.52423 37255 ft 486 kts 104°
2026-04-22 12:43 31.90052 -97.44920 37258 ft 486 kts 104°
2026-04-22 12:43 31.87810 -97.37430 37262 ft 485 kts 104°
2026-04-22 12:44 31.85558 -97.29928 37267 ft 486 kts 104°
2026-04-22 12:44 31.83329 -97.22486 37269 ft 485 kts 104°
2026-04-22 12:45 31.81100 -97.14928 37274 ft 485 kts 104°
2026-04-22 12:45 31.78879 -97.07493 37275 ft 485 kts 104°
2026-04-22 12:46 31.76628 -97.00000 37279 ft 486 kts 104°
2026-04-22 12:46 31.74371 -96.92517 37279 ft 485 kts 105°
2026-04-22 12:47 31.72107 -96.85030 37279 ft 486 kts 105°
2026-04-22 12:47 31.69844 -96.77566 37279 ft 485 kts 105°
2026-04-22 12:48 31.67578 -96.70113 37279 ft 485 kts 105°
2026-04-22 12:48 31.65321 -96.62705 37279 ft 485 kts 105°
2026-04-22 12:49 31.63043 -96.55247 37280 ft 485 kts 105°
2026-04-22 12:49 31.61134 -96.49008 37281 ft 484 kts 105°
2026-04-22 12:50 31.58867 -96.41618 37283 ft 485 kts 105°
2026-04-22 12:50 31.56580 -96.34180 37282 ft 485 kts 105°
2026-04-22 12:51 31.54289 -96.26747 37287 ft 485 kts 105°
2026-04-22 12:51 31.51993 -96.19314 37293 ft 485 kts 105°
2026-04-22 12:52 31.49692 -96.11884 37295 ft 485 kts 105°
2026-04-22 12:52 31.47387 -96.04457 37297 ft 485 kts 105°
2026-04-22 12:53 31.45110 -95.97059 37298 ft 486 kts 105°
2026-04-22 12:53 31.42796 -95.89626 37300 ft 486 kts 105°
2026-04-22 12:54 31.40466 -95.82202 37302 ft 486 kts 105°
2026-04-22 12:54 31.38124 -95.74757 37303 ft 487 kts 105°
2026-04-22 12:55 31.35782 -95.67316 37309 ft 487 kts 105°
2026-04-22 12:55 31.33272 -95.59924 37312 ft 491 kts 109°
2026-04-22 12:56 31.30527 -95.52600 37317 ft 491 kts 109°
2026-04-22 12:56 31.27807 -95.45265 37319 ft 492 kts 109°
2026-04-22 12:57 31.25115 -95.37973 37321 ft 492 kts 109°
2026-04-22 12:57 31.22404 -95.30625 37322 ft 493 kts 109°
2026-04-22 12:58 31.19725 -95.23246 37323 ft 493 kts 108°
2026-04-22 12:58 31.17031 -95.15857 37324 ft 494 kts 108°
2026-04-22 12:59 31.14323 -95.08479 37326 ft 495 kts 108°
2026-04-22 12:59 31.11599 -95.01086 37327 ft 496 kts 109°
2026-04-22 13:00 31.08868 -94.93696 37328 ft 496 kts 109°
2026-04-22 13:00 31.06130 -94.86305 37329 ft 496 kts 109°
2026-04-22 13:01 31.03387 -94.78915 37329 ft 497 kts 109°
2026-04-22 13:01 31.00636 -94.71521 37328 ft 497 kts 109°
2026-04-22 13:02 30.97876 -94.64120 37329 ft 497 kts 109°
2026-04-22 13:02 30.95131 -94.56772 37329 ft 498 kts 109°
2026-04-22 13:03 30.92360 -94.49371 37329 ft 498 kts 109°
2026-04-22 13:03 30.89586 -94.41979 37329 ft 498 kts 109°
2026-04-22 13:04 30.86810 -94.34595 37329 ft 498 kts 109°
2026-04-22 13:04 30.84022 -94.27195 37328 ft 499 kts 109°
2026-04-22 13:05 30.81233 -94.19808 37328 ft 499 kts 109°
2026-04-22 13:05 30.78432 -94.12407 37328 ft 499 kts 109°
2026-04-22 13:06 30.75653 -94.05076 37327 ft 499 kts 109°
2026-04-22 13:06 30.72847 -93.97691 37330 ft 500 kts 109°
2026-04-22 13:07 30.70021 -93.90268 37331 ft 502 kts 109°
2026-04-22 13:07 30.67191 -93.82850 37332 ft 502 kts 109°
2026-04-22 13:08 30.64357 -93.75438 37332 ft 502 kts 109°
2026-04-22 13:08 30.61520 -93.68032 37333 ft 502 kts 109°
2026-04-22 13:09 30.58692 -93.60664 37334 ft 502 kts 109°
2026-04-22 13:09 30.55845 -93.53263 37336 ft 502 kts 109°
2026-04-22 13:10 30.52988 -93.45851 37337 ft 503 kts 109°
2026-04-22 13:10 30.50130 -93.38452 37339 ft 503 kts 109°
2026-04-22 13:11 30.47265 -93.31051 37342 ft 504 kts 109°
2026-04-22 13:11 30.44393 -93.23644 37343 ft 504 kts 109°
2026-04-22 13:12 30.41514 -93.16236 37345 ft 504 kts 109°
2026-04-22 13:12 30.38643 -93.08864 37345 ft 505 kts 109°
2026-04-22 13:13 30.35747 -93.01443 37346 ft 506 kts 109°
2026-04-22 13:13 30.32842 -92.94015 37346 ft 506 kts 109°
2026-04-22 13:14 30.29930 -92.86582 37347 ft 507 kts 109°
2026-04-22 13:14 30.27031 -92.79198 37347 ft 507 kts 109°
2026-04-22 13:15 30.24101 -92.71750 37347 ft 507 kts 109°
2026-04-22 13:15 30.21171 -92.64318 37350 ft 508 kts 109°
2026-04-22 13:16 30.18233 -92.56880 37358 ft 508 kts 109°
2026-04-22 13:16 30.15294 -92.49454 37361 ft 508 kts 109°
2026-04-22 13:17 30.12348 -92.42026 37364 ft 509 kts 109°
2026-04-22 13:17 30.09409 -92.34629 37366 ft 509 kts 109°
2026-04-22 13:18 30.06450 -92.27200 37368 ft 510 kts 109°
2026-04-22 13:18 30.03480 -92.19757 37368 ft 510 kts 109°
2026-04-22 13:19 30.00509 -92.12324 37370 ft 510 kts 109°
2026-04-22 13:19 29.97534 -92.04898 37370 ft 510 kts 109°
2026-04-22 13:20 29.94573 -91.97522 37371 ft 510 kts 109°
2026-04-22 13:20 29.91587 -91.90098 37371 ft 510 kts 109°
2026-04-22 13:21 29.88597 -91.82677 37372 ft 510 kts 109°
2026-04-22 13:21 29.85603 -91.75263 37373 ft 510 kts 109°
2026-04-22 13:22 29.82606 -91.67855 37376 ft 510 kts 109°
2026-04-22 13:22 29.79606 -91.60457 37380 ft 509 kts 109°
2026-04-22 13:23 29.76631 -91.53132 37384 ft 508 kts 109°
2026-04-22 13:23 29.73632 -91.45764 37388 ft 509 kts 109°
2026-04-22 13:24 29.70625 -91.38389 37389 ft 509 kts 109°
2026-04-22 13:24 29.67609 -91.31007 37390 ft 509 kts 109°
2026-04-22 13:25 29.64588 -91.23629 37390 ft 509 kts 109°
2026-04-22 13:25 29.61567 -91.16263 37390 ft 509 kts 109°
2026-04-22 13:26 29.58558 -91.08942 37389 ft 509 kts 109°
2026-04-22 13:26 29.55528 -91.01583 37389 ft 509 kts 109°
2026-04-22 13:27 29.52488 -90.94215 37390 ft 510 kts 109°
2026-04-22 13:27 29.49444 -90.86851 37390 ft 510 kts 109°
2026-04-22 13:28 29.46413 -90.79532 37390 ft 511 kts 109°
2026-04-22 13:28 29.43359 -90.72172 37390 ft 511 kts 109°
2026-04-22 13:29 29.40296 -90.64804 37389 ft 511 kts 109°
2026-04-22 13:29 29.37230 -90.57443 37389 ft 512 kts 109°
2026-04-22 13:30 29.34155 -90.50076 37388 ft 512 kts 109°
2026-04-22 13:30 29.31085 -90.42719 37388 ft 511 kts 109°
2026-04-22 13:31 29.28025 -90.35364 37387 ft 512 kts 110°
2026-04-22 13:31 29.24933 -90.28014 37386 ft 512 kts 110°
2026-04-22 13:32 29.21856 -90.20719 37385 ft 512 kts 110°
2026-04-22 13:32 29.18757 -90.13382 37385 ft 512 kts 110°
2026-04-22 13:33 29.15706 -90.06021 37384 ft 510 kts 107°
2026-04-22 13:33 29.12977 -89.98546 37381 ft 509 kts 106°
2026-04-22 13:34 29.10220 -89.91078 37376 ft 509 kts 107°
2026-04-22 13:34 29.07433 -89.83634 37376 ft 509 kts 107°
2026-04-22 13:35 29.04653 -89.76255 37376 ft 509 kts 107°
2026-04-22 13:35 29.01879 -89.68815 37375 ft 508 kts 107°
2026-04-22 13:36 28.99094 -89.61381 37375 ft 509 kts 107°
2026-04-22 13:36 28.96301 -89.53972 37374 ft 507 kts 107°
2026-04-22 13:37 28.93504 -89.46581 37374 ft 507 kts 107°
2026-04-22 13:37 28.90698 -89.39182 37374 ft 507 kts 107°
2026-04-22 13:38 28.87903 -89.31831 37373 ft 507 kts 107°
2026-04-22 13:38 28.84157 -89.22000 37373 ft 508 kts 107°
2026-04-22 13:39 28.81337 -89.14615 37371 ft 508 kts 107°
2026-04-22 13:39 28.78508 -89.07222 37371 ft 508 kts 107°
2026-04-22 13:40 28.75685 -88.99858 37360 ft 506 kts 107°
2026-04-22 13:40 28.72863 -88.92513 37358 ft 506 kts 107°
2026-04-22 13:41 28.70034 -88.85161 37366 ft 506 kts 107°
2026-04-22 13:41 28.67219 -88.77864 37368 ft 507 kts 107°
2026-04-22 13:42 28.64379 -88.70512 37368 ft 507 kts 107°
2026-04-22 13:42 28.61542 -88.63182 37364 ft 506 kts 107°
2026-04-22 13:43 28.58697 -88.55848 37351 ft 506 kts 107°
2026-04-22 13:43 28.55852 -88.48527 37351 ft 506 kts 107°
2026-04-22 13:44 28.53005 -88.41213 37360 ft 505 kts 107°
2026-04-22 13:44 28.50193 -88.33959 37364 ft 505 kts 107°
2026-04-22 13:45 28.47344 -88.26650 37364 ft 505 kts 108°
2026-04-22 13:45 28.44484 -88.19366 37364 ft 505 kts 108°
2026-04-22 13:46 28.41618 -88.12083 37364 ft 505 kts 108°
2026-04-22 13:46 28.38747 -88.04792 37363 ft 504 kts 107°
2026-04-22 13:47 28.36325 -87.97394 37363 ft 497 kts 101°
2026-04-22 13:47 28.34245 -87.89910 37362 ft 497 kts 101°
2026-04-22 13:48 28.32113 -87.82431 37362 ft 498 kts 101°
2026-04-22 13:48 28.29969 -87.75020 37361 ft 497 kts 101°
2026-04-22 13:49 28.27801 -87.67566 37361 ft 497 kts 101°
2026-04-22 13:49 28.25661 -87.60102 37365 ft 497 kts 101°
2026-04-22 13:50 28.23503 -87.52642 37365 ft 498 kts 102°
2026-04-22 13:50 28.21329 -87.45178 37364 ft 498 kts 102°
2026-04-22 13:51 28.19153 -87.37736 37364 ft 498 kts 102°
2026-04-22 13:51 28.16971 -87.30290 37363 ft 497 kts 102°
2026-04-22 13:52 28.14787 -87.22857 37366 ft 497 kts 102°
2026-04-22 13:52 28.12613 -87.15475 37369 ft 497 kts 102°
2026-04-22 13:53 28.10440 -87.08053 37368 ft 496 kts 102°
2026-04-22 13:53 28.08257 -87.00645 37367 ft 496 kts 102°
2026-04-22 13:54 28.06057 -86.93251 37366 ft 495 kts 103°
2026-04-22 13:54 28.03854 -86.85863 37364 ft 494 kts 103°
2026-04-22 13:55 28.01654 -86.78494 37362 ft 494 kts 103°
2026-04-22 13:55 27.99506 -86.71165 37350 ft 493 kts 103°
2026-04-22 13:56 27.97374 -86.63816 37345 ft 490 kts 103°
2026-04-22 13:56 27.95241 -86.56491 37347 ft 490 kts 103°
2026-04-22 13:57 27.93108 -86.49184 37349 ft 489 kts 103°
2026-04-22 13:57 27.90965 -86.41863 37347 ft 489 kts 103°
2026-04-22 13:58 27.88853 -86.34552 37346 ft 489 kts 103°
2026-04-22 13:58 27.86733 -86.27240 37345 ft 489 kts 103°
2026-04-22 13:59 27.84613 -86.19984 37344 ft 489 kts 103°
2026-04-22 13:59 27.82469 -86.12676 37343 ft 489 kts 103°
2026-04-22 14:00 27.80324 -86.05383 37342 ft 489 kts 103°
2026-04-22 14:00 27.78173 -85.98087 37342 ft 490 kts 103°
2026-04-22 14:01 27.76016 -85.90787 37341 ft 490 kts 103°
2026-04-22 14:01 27.73855 -85.83490 37339 ft 489 kts 103°
2026-04-22 14:02 27.71705 -85.76247 37336 ft 490 kts 104°
2026-04-22 14:02 27.69538 -85.68955 37335 ft 490 kts 104°
2026-04-22 14:03 27.67384 -85.61647 37334 ft 491 kts 104°
2026-04-22 14:03 27.65200 -85.54350 37331 ft 491 kts 104°
2026-04-22 14:04 27.63007 -85.47053 37328 ft 491 kts 105°
2026-04-22 14:04 27.60814 -85.39765 37326 ft 491 kts 105°
2026-04-22 14:05 27.58825 -85.32413 37325 ft 488 kts 99°
2026-04-22 14:06 27.56935 -85.21311 37323 ft 488 kts 97°
2026-04-22 14:06 27.55634 -85.13837 37321 ft 489 kts 97°
2026-04-22 14:07 27.54330 -85.06308 37319 ft 489 kts 98°
2026-04-22 14:07 27.52997 -84.98774 37309 ft 491 kts 98°
2026-04-22 14:08 27.51652 -84.91223 37297 ft 490 kts 98°
2026-04-22 14:08 27.50316 -84.83738 37292 ft 490 kts 98°
2026-04-22 14:09 27.48973 -84.76204 37291 ft 490 kts 99°
2026-04-22 14:09 27.47653 -84.68669 37289 ft 491 kts 99°
2026-04-22 14:10 27.46306 -84.61120 37288 ft 491 kts 99°
2026-04-22 14:10 27.44947 -84.53577 37286 ft 492 kts 99°
2026-04-22 14:11 27.43584 -84.46031 37284 ft 491 kts 99°
2026-04-22 14:11 27.42223 -84.38495 37283 ft 491 kts 99°
2026-04-22 14:12 27.40854 -84.30966 37282 ft 492 kts 99°
2026-04-22 14:12 27.39475 -84.23422 37284 ft 492 kts 99°
2026-04-22 14:13 27.38091 -84.15882 37283 ft 492 kts 99°
2026-04-22 14:13 27.36704 -84.08345 37282 ft 492 kts 99°
2026-04-22 14:14 27.35313 -84.00809 37269 ft 492 kts 99°
2026-04-22 14:14 27.33964 -83.93307 37263 ft 493 kts 100°
2026-04-22 14:15 27.32580 -83.85735 37260 ft 494 kts 101°
2026-04-22 14:15 27.31182 -83.78155 37259 ft 495 kts 101°
2026-04-22 14:16 27.29777 -83.70576 37258 ft 495 kts 101°
2026-04-22 14:16 27.28366 -83.62990 37256 ft 495 kts 101°
2026-04-22 14:17 27.26959 -83.55449 37255 ft 496 kts 101°
2026-04-22 14:17 27.25536 -83.47850 37254 ft 497 kts 101°
2026-04-22 14:18 27.24127 -83.40244 37251 ft 497 kts 101°
2026-04-22 14:18 27.22699 -83.32640 37252 ft 497 kts 102°
2026-04-22 14:19 27.21254 -83.25036 37252 ft 497 kts 102°
2026-04-22 14:19 27.19815 -83.17488 37251 ft 498 kts 102°
2026-04-22 14:20 27.17643 -83.06068 37250 ft 498 kts 102°
2026-04-22 14:20 27.16191 -82.98459 37250 ft 499 kts 102°
2026-04-22 14:21 27.13856 -82.87071 37249 ft 499 kts 108°
2026-04-22 14:22 27.11164 -82.79926 37249 ft 496 kts 121°
2026-04-22 14:22 27.09409 -82.76591 37249 ft 495 kts 124°
2026-04-22 14:23 27.03935 -82.66747 37249 ft 495 kts 124°
2026-04-22 14:23 27.00299 -82.60163 37024 ft 499 kts 124°
2026-04-22 14:23 26.98484 -82.56877 36698 ft 493 kts 124°
2026-04-22 14:24 26.96686 -82.53622 36203 ft 488 kts 124°
2026-04-22 14:24 26.94929 -82.50443 35717 ft 484 kts 124°
2026-04-22 14:24 26.93104 -82.47299 35231 ft 478 kts 128°
2026-04-22 14:24 26.91064 -82.44380 34756 ft 472 kts 134°
2026-04-22 14:25 26.88826 -82.41731 34272 ft 465 kts 140°
2026-04-22 14:25 26.86444 -82.39312 33799 ft 459 kts 143°
2026-04-22 14:25 26.84017 -82.37013 33335 ft 455 kts 144°
2026-04-22 14:25 26.81613 -82.34740 32878 ft 451 kts 143°
2026-04-22 14:26 26.79233 -82.32477 32428 ft 447 kts 143°
2026-04-22 14:26 26.76882 -82.30226 31983 ft 443 kts 143°
2026-04-22 14:26 26.74559 -82.27986 31545 ft 439 kts 143°
2026-04-22 14:26 26.72251 -82.25770 31111 ft 435 kts 143°
2026-04-22 14:27 26.69960 -82.23578 30683 ft 432 kts 143°
2026-04-22 14:27 26.68449 -82.22135 30401 ft 429 kts 144°
2026-04-22 14:27 26.66186 -82.19975 29985 ft 426 kts 144°
2026-04-22 14:27 26.63943 -82.17835 29577 ft 422 kts 144°
2026-04-22 14:28 26.61718 -82.15713 29156 ft 419 kts 144°
2026-04-22 14:28 26.59509 -82.13608 28736 ft 416 kts 144°
2026-04-22 14:28 26.57313 -82.11516 28316 ft 413 kts 144°
2026-04-22 14:28 26.55137 -82.09444 27897 ft 410 kts 144°
2026-04-22 14:29 26.52973 -82.07381 27479 ft 407 kts 144°
2026-04-22 14:29 26.50855 -82.05296 27063 ft 405 kts 142°
2026-04-22 14:29 26.48771 -82.03179 26648 ft 403 kts 142°
2026-04-22 14:29 26.46712 -82.01080 26236 ft 400 kts 142°
2026-04-22 14:30 26.44660 -81.98994 25826 ft 397 kts 143°
2026-04-22 14:30 26.42612 -81.96926 25417 ft 395 kts 143°
2026-04-22 14:30 26.40583 -81.94882 25009 ft 392 kts 143°
2026-04-22 14:30 26.38561 -81.92850 24602 ft 390 kts 143°
2026-04-22 14:31 26.36550 -81.90831 24195 ft 387 kts 143°
2026-04-22 14:31 26.34579 -81.88854 23795 ft 385 kts 143°
2026-04-22 14:31 26.32590 -81.86859 23388 ft 383 kts 143°
2026-04-22 14:31 26.30615 -81.84879 22982 ft 381 kts 143°
2026-04-22 14:32 26.28649 -81.82910 22577 ft 379 kts 143°
2026-04-22 14:32 26.26691 -81.80949 22170 ft 377 kts 142°
2026-04-22 14:32 26.24814 -81.78911 21761 ft 378 kts 136°
2026-04-22 14:32 26.23205 -81.76589 21361 ft 380 kts 127°
2026-04-22 14:33 26.21876 -81.74041 20957 ft 380 kts 121°
2026-04-22 14:33 26.20730 -81.71394 20556 ft 379 kts 118°
2026-04-22 14:33 26.19643 -81.68719 20155 ft 377 kts 118°
2026-04-22 14:33 26.18537 -81.66081 19760 ft 375 kts 118°
2026-04-22 14:34 26.17419 -81.63468 19366 ft 373 kts 119°
2026-04-22 14:34 26.16298 -81.60875 18973 ft 371 kts 119°
2026-04-22 14:34 26.15192 -81.58332 18588 ft 368 kts 119°
2026-04-22 14:34 26.14077 -81.55775 18203 ft 366 kts 119°
2026-04-22 14:35 26.12951 -81.53198 17813 ft 364 kts 119°
2026-04-22 14:35 26.11862 -81.50708 17434 ft 362 kts 118°
2026-04-22 14:35 26.10756 -81.48180 16887 ft 365 kts 118°
2026-04-22 14:35 26.09635 -81.45617 16478 ft 363 kts 118°
2026-04-22 14:36 26.08548 -81.43136 16091 ft 360 kts 118°
2026-04-22 14:36 26.07455 -81.40637 15703 ft 358 kts 118°
2026-04-22 14:36 26.06375 -81.38150 15319 ft 356 kts 117°
2026-04-22 14:36 26.05307 -81.35679 14938 ft 353 kts 117°
2026-04-22 14:37 26.04243 -81.33229 14559 ft 351 kts 117°
2026-04-22 14:37 26.03180 -81.30793 14180 ft 349 kts 117°
2026-04-22 14:37 26.02126 -81.28377 13805 ft 346 kts 117°
2026-04-22 14:37 26.01075 -81.25977 13431 ft 344 kts 116°
2026-04-22 14:38 26.00028 -81.23585 13058 ft 342 kts 116°
2026-04-22 14:38 25.98990 -81.21213 12685 ft 340 kts 117°
2026-04-22 14:38 25.97957 -81.18854 12314 ft 338 kts 116°
2026-04-22 14:38 25.96947 -81.16548 11973 ft 323 kts 116°
2026-04-22 14:39 25.95993 -81.14371 11730 ft 304 kts 116°
2026-04-22 14:39 25.95098 -81.12327 11546 ft 285 kts 116°
2026-04-22 14:39 25.94248 -81.10384 11148 ft 276 kts 116°
2026-04-22 14:40 25.92589 -81.06603 10130 ft 269 kts 116°
2026-04-22 14:40 25.91762 -81.04716 9762 ft 272 kts 116°
2026-04-22 14:40 25.90962 -81.02865 9551 ft 268 kts 114°
2026-04-22 14:40 25.90220 -81.00984 9308 ft 265 kts 112°
2026-04-22 14:41 25.89526 -80.99098 9047 ft 263 kts 111°
2026-04-22 14:41 25.88854 -80.97212 8959 ft 263 kts 111°
2026-04-22 14:41 25.88144 -80.95354 8775 ft 260 kts 113°
2026-04-22 14:41 25.87414 -80.93511 8474 ft 261 kts 113°
2026-04-22 14:42 25.86698 -80.91664 8204 ft 260 kts 112°
2026-04-22 14:42 25.85992 -80.89820 8002 ft 258 kts 112°
2026-04-22 14:42 25.85288 -80.87988 7962 ft 258 kts 112°
2026-04-22 14:42 25.84587 -80.86162 7957 ft 256 kts 112°
2026-04-22 14:43 25.83888 -80.84338 7911 ft 257 kts 112°
2026-04-22 14:43 25.83184 -80.82511 7808 ft 257 kts 112°
2026-04-22 14:43 25.82485 -80.80698 7588 ft 255 kts 112°
2026-04-22 14:43 25.81788 -80.78887 7302 ft 256 kts 112°
2026-04-22 14:44 25.81099 -80.77093 7025 ft 255 kts 112°
2026-04-22 14:44 25.80403 -80.75285 6766 ft 246 kts 111°
2026-04-22 14:44 25.79747 -80.73584 6488 ft 242 kts 111°
2026-04-22 14:44 25.79084 -80.71869 6211 ft 241 kts 111°
2026-04-22 14:45 25.78424 -80.70159 5938 ft 240 kts 111°
2026-04-22 14:45 25.77765 -80.68455 5661 ft 239 kts 111°
2026-04-22 14:45 25.77238 -80.66718 5381 ft 236 kts 100°
2026-04-22 14:45 25.77088 -80.64922 5107 ft 232 kts 87°
2026-04-22 14:46 25.77167 -80.63137 4833 ft 230 kts 82°
2026-04-22 14:46 25.77287 -80.61400 4559 ft 221 kts 82°
2026-04-22 14:46 25.77377 -80.59748 4326 ft 209 kts 82°
2026-04-22 14:46 25.77462 -80.58182 4090 ft 198 kts 82°
2026-04-22 14:47 25.77543 -80.56669 3885 ft 193 kts 82°
2026-04-22 14:47 25.77616 -80.55201 3695 ft 188 kts 82°
2026-04-22 14:47 25.77682 -80.53768 3479 ft 184 kts 81°
2026-04-22 14:47 25.77744 -80.52362 3253 ft 181 kts 81°
2026-04-22 14:48 25.77802 -80.51001 3022 ft 177 kts 81°
2026-04-22 14:48 25.77858 -80.49677 2955 ft 168 kts 81°
2026-04-22 14:48 25.77911 -80.48402 2930 ft 164 kts 80°
2026-04-22 14:48 25.77963 -80.47178 2798 ft 154 kts 80°
2026-04-22 14:49 25.78010 -80.46029 2641 ft 146 kts 80°
2026-04-22 14:49 25.78057 -80.44914 2430 ft 143 kts 80°
2026-04-22 14:49 25.78103 -80.43813 2236 ft 143 kts 80°
2026-04-22 14:49 25.78148 -80.42704 2046 ft 145 kts 81°
2026-04-22 14:50 25.78195 -80.41556 1861 ft 150 kts 82°
2026-04-22 14:50 25.78244 -80.40397 1651 ft 150 kts 82°
2026-04-22 14:50 25.78291 -80.39259 1452 ft 149 kts 82°
2026-04-22 14:50 25.78339 -80.38109 1246 ft 149 kts 84°
2026-04-22 14:51 25.78386 -80.36965 1052 ft 149 kts 85°
2026-04-22 14:51 25.78434 -80.35810 863 ft 150 kts 84°
2026-04-22 14:51 25.78482 -80.34649 656 ft 150 kts 85°
2026-04-22 14:51 25.78530 -80.33496 458 ft 148 kts 84°
2026-04-22 14:52 25.78576 -80.32359 259 ft 148 kts 84°
2026-04-22 14:52 25.78622 -80.31220 68 ft 147 kts 85°
2026-04-22 14:52 25.78670 -80.30119 17 ft 139 kts 85°
2026-04-22 14:52 25.78707 -80.29297 16 ft 76 kts 88°
2026-04-22 14:53 25.78723 -80.28891 16 ft 33 kts 84°
2026-04-22 14:53 25.78769 -80.28731 16 ft 15 kts 52°
2026-04-22 14:53 25.78843 -80.28680 16 ft 12 kts
2026-04-22 14:53 25.78919 -80.28683 16 ft 10 kts
2026-04-22 14:54 25.78986 -80.28683 16 ft 9 kts 356°
2026-04-22 14:54 25.79036 -80.28687 16 ft 0 kts 357°
2026-04-22 14:55 25.79052 -80.28687 16 ft 10 kts 357°
2026-04-22 14:56 25.79166 -80.28693 16 ft 17 kts 358°
2026-04-22 14:56 25.79283 -80.28697 16 ft 16 kts 357°
2026-04-22 14:56 25.79381 -80.28725 16 ft 13 kts 306°
2026-04-22 14:56 25.79439 -80.28795 16 ft 13 kts 350°
2026-04-22 14:57 25.79526 -80.28802 16 ft 12 kts 356°
2026-04-22 14:57 25.79608 -80.28808 16 ft 11 kts 357°
2026-04-22 14:57 25.79696 -80.28812 16 ft 14 kts 357°
2026-04-22 14:57 25.79787 -80.28816 16 ft 13 kts 358°
2026-04-22 14:58 25.79877 -80.28821 16 ft 13 kts 356°
2026-04-22 14:58 25.79934 -80.28761 16 ft 15 kts 83°
2026-04-22 14:58 25.79939 -80.28652 16 ft 14 kts 87°
2026-04-22 14:58 25.79944 -80.28536 16 ft 15 kts 87°
2026-04-22 14:59 25.79950 -80.28426 16 ft 14 kts 87°
2026-04-22 14:59 25.79945 -80.28325 16 ft 12 kts 131°
2026-04-22 14:59 25.79894 -80.28284 16 ft 8 kts 105°
2026-04-22 14:59 25.79891 -80.28228 16 ft 4 kts 102°
2026-04-22 15:00 25.79870 -80.28217 16 ft 4 kts 173°
2026-04-22 15:00 25.79846 -80.28215 16 ft 3 kts 176°
2026-04-22 15:00 25.79833 -80.28214 16 ft 1 kts 178°
2026-04-22 17:10 13.73655 -60.94787 115 ft 0 kts